TimePST,TemperatureF,Dew PointF,Humidity,Sea Level PressureIn,VisibilityMPH,Wind Direction,Wind SpeedMPH,Gust SpeedMPH,PrecipitationIn,Events,Conditions,WindDirDegrees,DateUTC
12:00 AM,35.6,35.6,100,30.25,1.2,East,3.5,-,N/A,Rain,Light Rain,90,2013-12-23 08:00:00
12:38 AM,35.6,35.6,100,30.22,1.8,NNW,3.5,-,N/A,Rain,Light Rain,330,2013-12-23 08:38:00
1:00 AM,35.6,35.6,100,30.21,1.2,Variable,2.3,-,N/A,Rain,Light Rain,0,2013-12-23 09:00:00
2:00 AM,37.4,37.4,100,30.19,2.0,North,5.8,-,N/A,Rain,Light Rain,350,2013-12-23 10:00:00
3:00 AM,37.4,37.4,100,30.18,2.0,NNW,3.5,-,N/A,Rain,Light Rain,340,2013-12-23 11:00:00
4:00 AM,37,37,100,30.15,1,NW,2.3,,,Rain,Light Rain,320,2013-12-23 12:00:00
4:00 AM,37.4,37.4,100,30.14,1.5,NW,2.3,-,N/A,Rain,Light Rain,320,2013-12-23 12:00:00
4:53 AM,39.2,39.2,100,30.13,1.0,SW,4.6,-,N/A,Rain,Rain,220,2013-12-23 12:53:00
5:00 AM,39.2,39.2,100,30.13,1.0,SW,3.5,-,N/A,Rain,Rain,220,2013-12-23 13:00:00
5:20 AM,41.0,41.0,100,30.12,2.0,SSW,5.8,-,N/A,Rain,Light Rain,200,2013-12-23 13:20:00
6:00 AM,44.6,44.6,100,30.11,2.0,South,12.7,19.6,N/A,Rain,Light Rain,190,2013-12-23 14:00:00
6:36 AM,44.6,44.6,100,30.11,7.0,South,12.7,-,N/A,Rain,Light Rain,180,2013-12-23 14:36:00
7:00 AM,44.6,44.6,100,30.10,8.0,South,13.8,-,N/A,Rain,Light Rain,180,2013-12-23 15:00:00
8:00 AM,46.4,44.6,93,30.09,15.0,South,13.8,21.9,N/A,Rain,Light Rain,180,2013-12-23 16:00:00
8:30 AM,46.4,44.6,93,30.09,15.0,South,15.0,20.7,N/A,,Mostly Cloudy,180,2013-12-23 16:30:00
8:40 AM,46.4,44.6,93,30.09,10.0,South,17.3,-,N/A,Rain,Light Rain Showers,180,2013-12-23 16:40:00
9:00 AM,46.4,44.6,93,30.09,15.0,South,15.0,-,N/A,,Mostly Cloudy,170,2013-12-23 17:00:00
10:00 AM,50,45,77,30.09,19,South,18.4,,,,Partly Cloudy,170,2013-12-23 18:00:00
10:00 AM,50.0,44.6,82,30.09,20.0,South,17.3,25.3,N/A,,Mostly Cloudy,170,2013-12-23 18:00:00
11:00 AM,50.0,44.6,82,30.09,15.0,SSW,17.3,26.5,N/A,,Mostly Cloudy,200,2013-12-23 19:00:00
12:00 PM,50.0,41.0,71,30.10,15.0,SW,21.9,28.8,N/A,Rain,Light Rain Showers,220,2013-12-23 20:00:00
12:12 PM,50.0,41.0,71,30.11,25.0,SW,20.7,28.8,N/A,,Mostly Cloudy,220,2013-12-23 20:12:00
1:00 PM,50.0,39.2,66,30.14,25.0,SW,24.2,-,N/A,,Mostly Cloudy,220,2013-12-23 21:00:00
2:00 PM,48.2,39.2,71,30.16,25.0,SW,13.8,20.7,N/A,,Mostly Cloudy,230,2013-12-23 22:00:00
3:00 PM,48.2,39.2,71,30.18,25.0,SSW,12.7,-,N/A,,Scattered Clouds,200,2013-12-23 23:00:00
4:00 PM,46,38,64,30.23,25,SSW,12.7,,,,Partly Cloudy,200,2013-12-24 00:00:00
4:00 PM,46.4,37.4,71,30.22,25.0,SSW,12.7,-,N/A,,Mostly Cloudy,210,2013-12-24 00:00:00
5:00 PM,44.6,37.4,76,30.26,25.0,SSW,13.8,-,N/A,,Partly Cloudy,200,2013-12-24 01:00:00
6:00 PM,42.8,37.4,81,30.29,10.0,South,13.8,-,N/A,,Partly Cloudy,190,2013-12-24 02:00:00
7:00 PM,42.8,37.4,81,30.33,10.0,South,13.8,-,N/A,,Partly Cloudy,170,2013-12-24 03:00:00
8:00 PM,42.8,37.4,81,30.37,15.0,South,13.8,-,N/A,,Scattered Clouds,180,2013-12-24 04:00:00
9:00 PM,41.0,37.4,87,30.40,15.0,South,8.1,-,N/A,,Mostly Cloudy,190,2013-12-24 05:00:00
10:00 PM,41,37,80,30.45,15,SW,5.8,,,,Mostly Cloudy,220,2013-12-24 06:00:00
10:00 PM,41.0,37.4,87,30.45,15.0,SW,6.9,-,N/A,,Mostly Cloudy,220,2013-12-24 06:00:00
11:00 PM,41.0,37.4,87,30.47,15.0,WSW,5.8,-,N/A,,Mostly Cloudy,240,2013-12-24 07:00:00